Retour au catalogue

STARLINK-37317

ActifCommunicationsVLEO
NORAD 69152·PAYLOAD·🇺🇸 United States

Lancé May 21, 2026 depuis Cape Canaveral Space Force Station

Loading…

Prochains Passages (prochaines 24 heures)

TLE

FraisSource: CelesTrak SupGP

Époque: Sep 15, 2026, 03:04 UTC

1 69152C 26111E   26258.12826389 -.00016068  00000+0 -47483-3 0  2585
2 69152  53.1577  91.0827 0001207  87.6688 159.5865 15.34392337    13

Suivez STARLINK-37317 en temps réel avec AllMySat

Download on the App Store